Location: Deurze
(52.9838°N, 6.6090°E)
Time: 18:32:44
(UTC+00:00)

Meteor 1-18 Rocket - Pass Details

Date: 11 March 2026
Orbit: 835 x 908 km, 81.2° (Epoch: 20 April)

Event Time Altitude Azimuth Distance (km) Brightness Sun altitude
Rises 18:56:57 0° 347° (NNW) 3,468 7.8 -13.8°
Reaches altitude 10° 18:59:26 10° 350° (N) 2,515 7.0 -14.1°
Maximum altitude 19:05:07 67° 73° (ENE) 924 4.2 -14.9°
Drops below altitude 10° 19:10:40 10° 157° (SSE) 2,457 6.3 -15.8°
Enters shadow 19:11:02 - 157° (SSE) 2,600 6.4 -15.8°
